DECAYED
Showing default

MAX VALIER SAT, 42778 (Decayed)

Orbit data source: Space-Track

MAX VALIER SAT, 42778 was an Italian payload satellite in LEO that was launched on Fri, 23 Jun 2017 UTC via a PSLV-XL launch vehicle from the Sirharikota (SRI). Payloads include a variety of satellites, spacecraft, and rockets equipped with specific instruments for various scientific and technological missions. These include communications satellites like Starlink; space stations such as the ISS; scientific satellites like the Hubble; Earth observation satellites from companies like Planet Labs, Umbra, and HawkEye 360; GPS; miniature CubeSats for education and research; and military/defense satellites.

Not visible in the next 10 days
MAX VALIER SAT details
Identifier
42778, 2017-036P
Orbit
Decayed
Last TLE update5 months ago
Origin
Flag of ITGOBBZ/GOBME (IT)
ManufacturerAmat. Max Valier
MissionDecayed Amateur Astronomy
Bus & MotorMAXVALIER, Unknown motor
Mass10 kg wet, 10 kg dry
Launch date (UTC)
2017-06-23 (7 years ago)
Launch vehicle
PSLV-XL
Launch site
Sirharikota (SRI)
Object type
Payload
Rocket body
Debris
Shape & HBRBox, 0.4 m
Radar Cross Section0.120 m², Medium (>0.1 m² and < 1m²)

Expand to show TLE details & history

TLE from 5 months ago
0 MAX VALIER SAT
1 42778U 17036P   24181.51780098  .07500886  23432-5  86307-3 0  9999
2 42778  97.0566 220.7984 0007714 249.3707 110.6764 16.36858806391577
Epoch: 2024-06-29T12:25Z
Definitive object data (Epoch: 2024-06-29T12:25:38.004Z)
Latitude-0.00011°
Longitude116.31054°
Altitude179.218 km
Speed7.798 km/s
True Right ascension14h 43m 11s
True Declination0° 00' 00"
Sunlit
Object was in full shadow at TLE epoch
Visualization observer readout
Observer readout values are unavailable because the object's trajectory could not be propagated. This is usually caused when the trajectory data is faulty or the object's orbit has decayed.
Visualization observer readout
Observer readout values are unavailable because the object's trajectory could not be propagated. This is usually caused when the trajectory data is faulty or the object's orbit has decayed.
Orbital elements
Apogee altitude176.02 km
Perigee altitude165.916 km
Semi-major axis6,549.105 km
Eccentricity0.0007714
Inclination97.0566°
RAAN220.7984°
Arg. of periapsis249.3707°
True anomaly110.75907°
Mean anomaly110.6764°
Eccentric anomaly110.71774°
Mean motion4.09515 °/min
BSTAR0.00086307
Orbital period87.91 mins
Loading maneuver chart data...
Loading historical data...
Loading historical data...
Loading historical data...
Loading historical data...
Loading historical data...
Loading historical data...
Loading historical data...

MAX VALIER SAT Visibility forecast

Observer location: undefined°, undefined

This satellite is decayed
Span
Click to sort rows by Start time (UTC) header in descending order
Start Az.
Max El. time (UTC)
Max El. Az.
Max El.
End time (UTC)
End Az.
|